Lapse_Rate
5.2 5.2 5.1 4.9 4.6 4.3 4.0 4.0 3.9 3.8 4.1 4.2 4.5 4.2 5.1 6.0 6.8 7.1 7.1 6.9 7.0 7.4 7.1 6.7 7.0 6.6 6.1 5.9 6.0 6.1 6.4 6.0 5.5 5.7 6.1 7.6 7.1 6.5 7.5 7.7 6.9 6.9 7.0 6.1 6.1
5.2 5.1 4.9 4.6 4.2 4.0 4.0 3.9 3.8 3.9 4.1 4.3 4.2 4.3 5.5 6.5 7.1 6.7 7.1 7.2 7.5 7.3 7.1 7.2 6.9 6.9 6.0 6.0 6.2 6.1 5.7 5.9 6.0 6.2 6.9 6.9 6.6 6.1 6.9 7.0 6.9 6.8 7.2 6.6 6.6
4.9 4.9 4.5 4.2 4.1 3.9 3.8 3.7 3.7 4.0 4.2 4.4 4.1 4.8 5.8 6.4 6.9 5.7 6.5 6.9 6.7 7.1 7.1 7.0 6.6 6.1 5.8 5.7 6.2 6.2 6.0 6.1 6.4 6.3 7.0 6.2 6.4 6.3 6.6 6.4 7.2 7.1 7.3 6.8 7.0
4.9 4.6 4.5 4.3 4.1 3.9 3.6 3.6 3.5 3.9 4.3 4.3 4.2 5.1 6.2 6.5 6.2 5.9 6.2 6.0 6.1 5.9 6.2 6.3 6.6 6.1 6.0 5.8 6.0 6.0 6.0 6.3 5.9 6.7 6.2 6.2 6.0 5.9 6.2 6.8 7.4 7.3 7.3 6.9 7.3
4.5 4.5 4.4 4.1 3.9 3.7 3.5 3.7 3.5 4.1 4.1 4.1 4.7 5.6 6.3 6.4 6.0 6.2 5.3 6.0 6.0 6.0 6.2 5.9 5.8 5.8 5.9 6.1 5.8 5.8 5.8 6.1 6.5 6.2 6.1 5.8 5.7 6.5 6.5 6.9 7.1 6.9 6.9 7.2 7.3
4.5 4.4 4.1 4.0 3.9 3.8 3.8 3.6 3.8 4.0 4.3 4.4 5.1 5.7 6.2 5.9 5.2 5.1 5.3 5.5 6.0 6.2 6.0 5.8 5.5 5.6 5.7 6.0 6.1 6.1 6.0 6.1 6.6 6.7 6.8 5.7 5.9 5.9 6.5 6.8 7.2 6.8 6.7 7.0 7.2
4.3 4.1 4.1 4.0 4.0 3.9 3.9 3.7 3.9 4.0 4.3 4.4 5.4 5.8 5.9 5.4 5.5 5.4 5.3 5.0 5.2 5.6 5.7 6.2 6.0 5.6 5.6 5.7 6.0 6.1 6.1 6.4 6.5 6.4 6.3 6.2 5.5 5.5 6.0 6.2 7.1 6.9 6.6 7.4 7.0
4.1 4.3 4.4 4.1 3.9 4.0 3.8 3.9 3.9 3.9 4.0 4.8 5.6 5.8 5.6 5.6 5.6 5.4 5.1 5.1 5.1 5.0 5.4 5.6 5.9 5.8 5.6 5.7 6.4 6.2 6.3 5.9 6.1 6.9 6.4 6.5 6.4 6.4 5.7 6.2 6.9 7.1 6.7 7.2 7.0
4.3 4.4 4.5 4.0 4.0 3.9 3.9 4.0 3.9 4.2 4.4 5.0 6.1 5.9 5.6 5.4 5.4 5.7 5.6 5.5 5.4 4.9 5.4 5.3 5.7 5.8 5.9 5.8 6.6 6.8 6.3 6.0 6.6 7.1 6.5 6.3 6.1 6.7 6.3 6.1 6.2 6.8 6.7 7.2 7.1
4.5 4.5 4.3 4.0 4.0 3.9 3.8 3.8 3.9 4.4 4.4 5.1 5.8 5.9 5.7 5.7 5.8 5.9 6.0 5.9 5.9 5.5 5.6 5.4 5.1 5.6 5.8 6.1 6.1 6.3 6.7 7.0 6.7 7.1 7.2 6.5 6.3 6.4 5.9 5.6 5.9 6.1 6.8 7.0 6.8
4.4 4.5 4.2 4.2 3.7 3.6 3.4 3.7 4.4 3.9 4.0 5.4 6.1 6.2 6.0 5.9 5.9 6.0 6.3 6.8 6.4 6.1 5.9 5.8 5.5 5.6 6.2 6.1 6.2 7.0 7.3 7.1 7.5 7.7 7.6 6.7 6.4 6.1 6.3 5.9 5.4 6.1 6.5 7.0 6.6
4.4 4.3 4.1 4.0 3.8 3.5 3.8 3.3 3.7 3.9 4.9 5.7 6.3 6.0 5.7 6.1 6.7 6.8 7.0 7.0 7.1 7.0 6.8 6.3 5.9 6.0 6.0 6.1 6.2 6.7 6.5 7.2 7.9 8.2 8.1 7.1 6.9 6.9 6.6 6.4 6.3 5.9 6.1 6.6 6.7
4.3 4.2 4.2 3.8 3.7 3.6 3.4 3.4 3.7 4.1 5.0 5.7 6.0 6.2 6.1 6.5 6.7 7.1 7.0 7.1 7.3 7.3 7.3 7.0 6.9 6.6 6.4 6.1 6.3 6.6 6.6 7.3 7.2 7.8 8.0 8.2 6.9 6.7 6.5 6.1 5.7 5.6 5.7 5.9 7.1
4.3 4.3 4.0 3.9 3.8 3.5 3.4 3.4 4.1 4.5 5.2 5.8 6.2 6.0 6.2 6.6 7.1 7.3 7.1 7.0 7.1 7.4 7.4 7.6 7.3 6.8 6.7 6.2 6.2 6.1 6.3 7.1 6.6 7.1 7.2 8.1 7.1 6.7 6.4 6.0 5.8 5.9 5.6 5.7 6.2
4.4 4.3 4.1 4.1 3.9 3.7 3.3 3.7 4.0 4.7 5.5 6.2 6.2 6.4 6.4 7.0 7.1 7.1 7.1 7.0 7.0 7.1 7.2 7.7 7.6 6.9 6.6 6.5 6.4 6.3 6.6 6.8 6.7 6.1 6.9 7.3 7.1 7.4 7.0 6.4 6.1 6.7 6.0 5.8 5.4
4.5 4.4 4.2 4.1 3.8 3.2 3.3 3.8 4.3 4.9 5.3 6.5 6.5 6.2 6.9 7.2 7.3 6.9 6.9 7.1 7.1 7.5 7.5 7.8 7.5 7.0 6.7 6.7 6.6 6.2 6.3 6.7 6.6 6.6 6.5 6.9 6.7 7.1 6.6 6.6 7.0 7.3 6.7 6.3 5.6
4.5 4.4 4.3 4.1 4.0 3.6 3.5 4.0 4.4 5.0 6.3 6.1 5.9 6.4 6.6 7.0 7.3 6.9 7.3 7.5 6.7 6.7 7.2 7.6 7.8 7.2 6.4 6.4 6.6 5.9 6.4 6.6 6.1 6.3 6.5 6.7 6.5 7.6 7.1 7.5 7.3 7.4 7.4 6.5 5.8
4.5 4.5 4.5 4.5 3.8 3.6 3.5 4.0 4.4 5.1 5.7 6.5 6.2 6.4 6.6 6.6 6.8 6.9 6.9 7.2 7.0 6.6 6.6 7.1 7.7 7.4 7.1 6.4 6.5 6.2 6.5 6.7 5.3 5.4 6.6 7.3 6.7 7.3 7.4 7.4 7.5 7.5 7.2 6.6 6.7
4.4 4.6 4.6 4.1 3.9 3.4 3.7 3.8 3.9 4.9 5.5 5.5 6.2 6.1 6.2 6.5 6.6 6.7 6.9 7.1 7.0 6.5 6.2 6.2 7.3 7.3 7.4 6.9 6.3 6.5 6.2 7.1 6.4 7.0 6.8 7.5 7.3 7.9 8.0 7.4 7.1 7.2 6.9 6.4 6.7
4.5 4.8 4.2 4.1 3.8 3.4 3.2 3.9 4.2 5.1 5.9 5.7 5.6 5.6 5.6 6.0 6.4 6.2 6.7 6.9 6.8 6.5 6.2 6.4 6.7 7.3 7.4 7.2 6.6 6.2 6.6 6.8 6.2 6.5 6.9 7.0 7.8 8.3 8.0 7.6 7.5 7.1 6.8 6.8 6.3
4.8 4.7 4.2 3.9 3.5 3.1 3.4 4.0 4.5 5.5 5.8 5.6 5.4 5.4 5.5 5.7 6.0 6.2 6.7 6.8 6.7 6.4 6.4 6.4 6.6 7.3 7.3 7.5 7.1 6.2 6.5 6.4 6.1 5.9 6.7 6.6 7.6 7.7 7.9 7.8 7.6 7.3 7.0 7.0 6.7
4.7 4.5 4.1 3.2 3.2 2.9 3.0 3.6 4.9 5.7 5.6 5.5 5.4 5.3 5.2 5.3 6.2 6.2 6.2 6.6 6.5 6.1 6.4 6.5 6.1 6.3 7.3 7.2 7.2 6.8 6.4 6.3 6.4 6.1 6.2 7.1 6.7 7.4 7.6 7.4 7.1 7.3 7.3 6.6 6.8
4.4 4.2 3.5 3.0 3.0 2.9 3.3 3.7 4.9 5.5 5.8 5.6 5.5 5.2 5.3 5.2 5.6 6.2 6.4 6.5 6.3 6.4 6.1 6.3 6.3 6.4 7.1 7.1 7.3 6.4 6.7 6.4 7.0 7.0 7.3 6.6 6.8 6.9 7.3 7.4 7.3 7.3 7.1 6.4 6.5
4.4 3.8 3.0 2.7 2.7 2.8 3.3 4.5 5.0 5.2 5.4 5.4 5.4 5.0 4.9 5.7 5.5 6.4 6.8 6.5 6.6 6.7 6.0 6.0 6.2 6.6 7.0 6.8 6.9 7.0 6.7 6.7 7.1 7.3 7.4 7.0 6.4 6.6 6.6 7.1 6.9 6.7 7.0 6.5 6.1
4.1 3.2 2.4 2.4 2.4 2.7 3.6 4.8 4.9 5.1 5.6 5.1 5.1 4.7 4.3 4.8 6.1 6.3 6.9 7.3 7.1 6.3 6.6 6.1 6.2 6.4 6.8 6.9 6.8 7.0 7.3 6.8 6.9 7.3 7.6 7.2 6.4 6.5 6.5 6.9 6.8 6.4 6.8 6.5 6.0
3.7 2.8 2.0 2.4 2.5 3.0 3.9 4.8 5.1 5.4 4.8 5.1 4.6 4.8 4.7 5.0 5.2 6.5 7.0 7.0 6.5 7.1 6.7 6.3 6.1 6.1 7.2 7.0 6.8 6.9 7.2 7.3 7.2 7.4 7.0 6.9 6.2 5.9 6.4 7.4 7.0 6.3 6.8 6.7 6.3
3.0 2.1 2.0 2.3 2.5 3.0 4.2 4.7 4.6 4.9 5.1 4.2 4.3 4.9 5.2 5.5 6.4 7.2 7.5 7.5 7.1 6.5 6.4 6.2 5.9 6.1 6.7 7.0 7.2 7.2 7.3 7.3 6.9 6.9 6.5 6.0 5.5 5.9 6.3 7.1 6.6 6.6 6.4 6.6 6.4
Wind_Speed
22 21 21 20 21 24 21 21 23 23 23 23 22 22 22 20 22 20 20 19 6 18 20 18 16 16 14 8 12 9 6 15 23 20 16 6 5 9 4 4 3 5 7 9 12
20 22 22 22 23 23 23 23 24 24 25 25 23 23 21 20 19 22 26 12 10 17 15 16 16 15 8 8 8 11 11 19 12 15 16 8 5 8 6 9 4 7 14 9 6
21 21 22 23 24 25 26 26 26 26 25 24 23 22 20 18 13 5 16 14 11 15 13 12 16 17 17 15 14 10 19 8 16 13 15 2 7 14 15 11 9 12 15 14 11
21 23 24 25 25 26 26 27 27 27 26 25 23 21 16 10 5 5 2 12 18 10 13 6 10 15 12 19 16 19 18 18 15 9 9 7 2 8 11 11 10 10 17 14 14
22 23 24 25 27 27 27 29 29 28 27 24 22 18 10 6 14 21 6 9 6 5 9 7 7 12 15 13 15 21 19 20 19 14 6 4 10 8 13 9 5 16 18 18 15
21 22 23 25 27 28 29 29 30 28 25 24 16 12 7 8 11 12 11 3 3 2 4 6 5 10 11 16 16 9 19 20 19 19 16 10 6 9 13 11 7 9 15 15 18
22 23 25 26 27 29 31 32 29 26 25 17 12 7 7 11 9 8 8 4 6 8 7 6 7 3 10 9 16 19 20 16 21 16 14 10 9 9 17 23 10 7 12 12 16
23 24 25 26 27 28 32 32 29 26 16 13 13 8 5 4 5 8 9 11 3 4 6 6 5 4 2 11 10 14 18 15 14 17 5 9 15 12 19 8 6 10 13 13 14
23 25 26 26 27 29 31 33 33 20 16 15 8 6 2 4 6 10 8 12 11 6 6 8 6 2 2 6 9 9 13 18 15 16 11 8 3 15 9 7 14 8 13 14 13
23 24 26 27 27 29 28 34 22 10 13 5 4 5 3 10 14 15 10 10 6 10 2 5 3 4 4 7 13 10 9 15 18 17 19 16 13 7 14 9 11 13 11 16 17
23 24 26 27 26 26 18 7 7 1 7 6 12 9 11 13 11 11 6 8 8 8 9 9 6 6 14 15 14 17 13 19 14 19 17 19 14 8 8 7 7 14 11 13 16
23 24 26 26 26 21 10 7 6 4 10 12 11 8 7 4 10 14 3 7 7 9 11 8 8 13 12 13 17 17 16 16 11 14 18 15 19 16 13 8 4 12 12 12 13
23 25 26 26 26 11 4 9 8 0 4 7 5 4 7 5 11 13 5 9 11 12 10 12 11 4 9 13 7 13 17 14 11 13 15 13 17 15 16 7 10 10 11 10 20
24 26 26 25 9 8 3 11 9 1 3 4 5 4 8 13 5 9 6 6 4 8 9 7 11 14 9 13 12 9 7 19 17 7 8 10 8 12 14 17 17 10 15 7 15
25 27 25 11 7 5 8 12 4 2 2 9 7 2 16 12 9 3 7 3 6 11 7 4 4 9 8 11 11 5 10 12 7 3 1 7 4 5 15 12 13 12 16 7 14
26 24 18 2 5 7 13 8 2 3 3 5 11 16 15 10 9 2 13 6 5 7 9 16 13 10 7 9 8 6 4 6 7 2 3 3 10 5 15 20 19 17 18 13 15
26 19 11 11 6 16 10 3 3 4 11 11 14 17 15 14 12 12 10 6 6 6 4 11 14 13 11 6 7 10 5 1 2 1 3 5 8 10 17 18 21 20 18 15 21
27 18 5 3 14 11 4 2 5 10 12 15 14 17 9 15 11 16 11 7 9 6 9 6 3 6 14 11 6 8 4 3 5 4 5 9 4 6 8 17 18 20 19 12 16
27 2 3 5 13 6 3 3 3 7 10 11 16 7 9 15 8 9 11 2 4 6 5 4 4 8 6 8 12 7 5 4 3 4 2 5 6 5 7 5 10 21 19 17 17
5 4 2 15 10 3 2 2 5 8 9 7 7 8 12 14 9 11 5 3 2 4 7 4 6 3 8 6 10 6 5 3 3 3 5 5 8 4 8 13 8 7 14 17 14
2 3 5 18 4 3 2 3 4 8 7 4 5 5 10 10 12 7 5 10 6 9 15 7 4 3 3 5 7 6 3 3 2 2 4 5 2 5 4 4 7 8 10 18 19
3 3 7 9 3 2 2 3 6 8 8 5 6 7 7 13 5 3 5 7 15 18 10 4 4 5 6 2 5 11 6 3 3 3 4 2 2 7 7 9 9 5 4 13 22
3 3 6 6 3 4 8 4 6 9 8 7 5 6 10 10 6 9 12 11 14 19 3 7 3 5 3 4 5 4 11 9 2 2 3 2 2 5 6 8 9 8 6 5 17
2 4 3 3 2 3 6 6 8 7 8 12 8 6 9 9 7 11 12 9 20 15 11 10 4 6 6 7 2 2 3 5 4 1 1 3 8 10 9 7 7 9 8 7 6
3 1 1 3 4 5 4 5 9 10 7 9 4 11 12 5 13 3 14 17 11 5 9 7 5 7 13 16 9 6 8 5 2 4 1 7 12 7 6 7 8 7 8 6 5
2 3 3 2 5 5 3 5 9 12 6 8 7 14 14 11 9 17 13 6 6 5 10 3 5 10 8 4 8 7 11 10 4 2 3 16 13 10 11 17 17 9 7 7 5
1 2 2 1 4 3 2 5 9 9 5 9 14 12 12 12 17 20 18 18 16 17 8 3 4 6 3 7 3 7 3 7 6 8 4 12 9 10 12 18 16 15 12 8 7
Wind_Direction
349 343 340 337 336 335 332 330 328 324 319 315 314 315 311 319 313 295 284 274 315 316 294 280 266 271 291 246 222 216 214 220 226 215 232 260 171 156 209 123 98 117 74 93 90
346 341 339 339 336 330 325 324 320 320 322 319 321 321 326 323 309 294 276 263 357 337 294 223 238 243 234 242 223 224 210 230 223 226 235 180 173 259 192 197 176 108 108 99 116
342 338 334 335 335 333 329 326 321 320 317 315 320 319 321 323 307 51 70 90 34 346 323 237 247 237 226 231 223 233 236 258 244 268 243 344 239 248 192 216 198 163 136 144 151
339 343 341 335 333 330 327 322 320 320 318 319 316 314 318 299 287 46 269 261 302 343 343 250 266 257 266 225 240 235 239 234 244 277 268 283 236 274 227 216 164 164 153 150 156
345 341 341 339 335 330 326 323 319 319 318 316 313 310 305 275 258 277 316 24 53 17 347 347 294 256 257 236 231 255 250 242 239 222 243 243 258 256 292 243 115 167 159 157 156
342 340 339 338 335 331 327 321 318 319 317 313 311 311 279 281 265 355 339 145 225 160 354 323 303 324 308 265 240 241 237 254 255 220 212 219 253 203 282 262 141 178 157 158 155
341 339 337 334 334 329 325 320 317 318 313 307 304 292 251 253 318 350 287 286 275 231 227 253 309 324 341 284 270 256 276 238 240 260 205 172 245 214 250 273 157 193 141 160 157
343 337 336 332 333 330 324 316 314 313 302 301 289 271 266 17 319 279 343 323 347 238 246 191 186 324 259 317 301 275 243 257 229 238 195 157 232 244 225 301 204 182 155 168 160
341 339 335 334 334 330 321 311 307 300 285 281 258 225 298 165 299 349 346 316 314 312 320 154 169 185 240 234 281 242 238 223 237 235 188 168 242 222 235 302 285 197 167 167 152
345 341 339 337 335 330 321 310 304 284 327 195 246 255 278 333 341 312 282 254 271 283 142 156 194 196 220 220 215 220 221 231 215 224 221 183 227 175 232 227 298 304 175 163 164
344 342 340 335 334 329 325 337 4 120 8 316 310 291 307 329 327 303 13 325 268 244 255 222 207 211 210 225 260 272 259 225 240 217 205 204 203 180 188 214 257 277 261 153 149
342 340 338 332 331 326 323 27 31 290 310 302 258 272 296 28 312 333 9 337 316 280 275 194 239 244 217 232 221 252 265 279 254 224 225 206 206 201 189 190 227 304 315 157 137
340 338 336 329 323 304 348 23 344 2 279 286 280 320 351 309 305 320 332 318 303 293 271 271 266 295 242 217 235 234 244 261 231 265 270 181 222 200 203 199 223 223 283 305 152
338 337 335 328 297 322 58 354 339 277 295 47 24 65 333 317 308 16 21 344 314 304 305 268 265 273 251 234 200 254 282 241 247 251 233 243 228 210 189 198 195 187 252 310 157
339 338 331 328 302 333 337 333 330 221 30 356 350 287 336 324 308 25 21 303 269 292 304 269 342 321 259 237 204 248 346 252 273 269 262 245 265 217 173 193 211 207 224 209 178
340 338 329 26 255 8 332 317 245 241 16 3 359 341 336 359 1 0 329 153 308 291 262 267 275 262 272 238 241 201 253 305 327 106 233 201 215 211 181 194 192 198 202 201 193
337 334 322 301 325 320 315 258 263 31 358 359 339 329 313 3 3 4 350 330 27 339 332 301 243 237 234 254 224 169 124 194 31 10 242 175 203 257 195 192 194 193 203 190 181
330 324 245 298 334 317 291 277 29 17 18 331 334 309 26 20 353 349 347 358 32 6 305 336 345 193 196 226 211 179 191 154 169 183 224 123 226 227 224 190 195 198 200 192 161
324 195 273 345 327 310 292 41 10 14 350 336 328 8 351 4 347 353 327 75 6 42 10 309 280 318 253 190 229 160 197 21 355 222 271 179 180 255 223 184 173 186 190 170 176
327 289 66 339 339 279 34 91 351 17 348 346 354 4 337 348 359 341 305 102 53 61 39 286 286 252 283 180 219 176 125 93 145 262 191 178 191 226 155 191 184 196 180 164 151
284 300 16 342 322 28 51 349 344 350 2 0 327 309 340 349 326 336 291 319 340 1 350 271 275 323 266 209 189 157 133 207 168 261 292 144 153 348 327 151 197 194 170 162 155
305 328 4 344 33 326 357 348 344 356 4 345 325 336 345 342 319 304 286 320 347 4 323 322 291 277 239 41 253 191 178 228 176 224 255 109 25 28 8 6 17 164 154 152 169
3 310 33 355 39 351 350 356 356 354 356 4 320 8 330 350 322 308 329 334 352 339 347 348 311 304 320 35 299 157 217 198 7 347 277 84 83 62 49 30 7 27 54 118 160
19 338 23 42 178 335 358 357 342 24 330 353 306 307 9 327 324 299 290 308 337 321 309 334 266 259 326 300 244 149 242 258 203 88 160 164 92 31 16 50 35 12 26 41 83
4 10 48 345 15 11 354 318 353 9 350 330 337 352 342 326 313 254 320 321 326 349 9 351 279 288 289 280 257 207 189 157 150 303 303 81 78 50 50 53 39 33 10 57 46
9 356 342 321 350 342 340 357 353 338 328 321 333 332 323 306 284 302 326 330 272 319 350 308 281 317 294 280 209 156 159 139 122 351 86 93 83 65 53 49 31 28 30 42 57
336 159 308 79 313 341 41 304 330 342 310 338 321 323 317 310 317 294 283 276 264 279 293 273 301 325 278 344 187 143 6 93 88 41 322 68 79 69 57 63 30 14 19 38 21